When you browse on this site, cookies collect data to enhance your experience and personalize the content and advertising you see.
Visit our Privacy Policy to learn more. By continuing to use the site, you agree to this use of cookies and data.
  • In Hungary
  • List of Countries
  • For 7 days
  • Water Temperature
  • Satellite Maps
  • Weather Map
  • News
  • Weather Widgets
  • user-avatar
    Login

    Hourly Weather Hurghada

    Today, 23 January, Wednesday

    Time Temperature Precipitation Wind Pressure Humidity
    00:00 +11°C° 0 mm 1 mps 682 mmHg 29%
    01:00 +10°C° 0 mm 1 mps 682 mmHg 30%
    02:00 +10°C° 0 mm 1 mps 682 mmHg 32%
    03:00 +10°C° 0 mm 1 mps 682 mmHg 34%
    04:00 +9°C° 0 mm 1 mps 681 mmHg 35%
    05:00 +9°C° 0 mm 1 mps 681 mmHg 37%
    06:00 +10°C° 0 mm 1 mps 682 mmHg 35%
    07:00 +11°C° 0 mm 1 mps 682 mmHg 32%
    08:00 +14°C° 0 mm 1 mps 683 mmHg 32%
    09:00 +15°C° 0 mm 1 mps 683 mmHg 28%
    10:00 +16°C° 0 mm 1 mps 683 mmHg 25%
    11:00 +19°C° 0 mm 1 mps 684 mmHg 21%
    12:00 +19°C° 0 mm 2 mps 683 mmHg 20%
    13:00 +20°C° 0 mm 2 mps 683 mmHg 19%
    14:00 +19°C° 0 mm 3 mps 683 mmHg 22%
    15:00 +19°C° 0 mm 2 mps 682 mmHg 23%
    16:00 +18°C° 0 mm 2 mps 682 mmHg 24%
    17:00 +18°C° 0 mm 2 mps 682 mmHg 25%
    18:00 +16°C° 0 mm 2 mps 682 mmHg 26%
    19:00 +15°C° 0 mm 1 mps 682 mmHg 28%
    20:00 +13°C° 0 mm 1 mps 681 mmHg 29%
    21:00 +13°C° 0 mm 1 mps 681 mmHg 27%
    22:00 +13°C° 0 mm 1 mps 681 mmHg 24%
    23:00 +13°C° 0 mm 1 mps 681 mmHg 22%

    Tomorrow, 24 January, Thursday

    Time Temperature Precipitation Wind Pressure Humidity
    00:00 +12°C° 0 mm 1 mps 681 mmHg 20%
    01:00 +12°C° 0 mm 1 mps 681 mmHg 18%
    02:00 +12°C° 0 mm 1 mps 681 mmHg 16%
    03:00 +12°C° 0 mm 1 mps 681 mmHg 15%
    04:00 +12°C° 0 mm 1 mps 681 mmHg 14%
    05:00 +12°C° 0 mm 1 mps 681 mmHg 13%
    06:00 +13°C° 0 mm 1 mps 681 mmHg 12%
    07:00 +14°C° 0 mm 1 mps 682 mmHg 11%
    08:00 +16°C° 0 mm 1 mps 682 mmHg 10%
    09:00 +18°C° 0 mm 2 mps 683 mmHg 9%
    10:00 +20°C° 0 mm 2 mps 683 mmHg 9%
    11:00 +22°C° 0 mm 3 mps 684 mmHg 9%
    12:00 +22°C° 0 mm 3 mps 683 mmHg 10%
    13:00 +24°C° 0 mm 3 mps 683 mmHg 11%
    14:00 +25°C° 0 mm 4 mps 683 mmHg 12%
    15:00 +22°C° 0 mm 3 mps 683 mmHg 15%
    16:00 +21°C° 0 mm 2 mps 682 mmHg 18%
    17:00 +20°C° 0 mm 2 mps 682 mmHg 21%
    18:00 +18°C° 0 mm 2 mps 682 mmHg 22%
    19:00 +18°C° 0 mm 1 mps 682 mmHg 24%
    20:00 +15°C° 0 mm 1 mps 682 mmHg 25%
    21:00 +15°C° 0 mm 1 mps 682 mmHg 23%
    22:00 +15°C° 0 mm 1 mps 682 mmHg 21%
    23:00 +15°C° 0 mm 1 mps 682 mmHg 18%

    Day after tomorrow, 25 January, Friday

    Time Temperature Precipitation Wind Pressure Humidity
    00:00 +14°C° 0 mm 1 mps 682 mmHg 18%
    01:00 +14°C° 0 mm 1 mps 682 mmHg 18%
    02:00 +14°C° 0 mm 1 mps 682 mmHg 17%
    03:00 +13°C° 0 mm 1 mps 682 mmHg 18%
    04:00 +13°C° 0 mm 1 mps 681 mmHg 19%
    05:00 +11°C° 0 mm 0 mps 681 mmHg 20%
    06:00 +13°C° 0 mm 1 mps 682 mmHg 18%
    07:00 +14°C° 0 mm 1 mps 682 mmHg 16%
    08:00 +15°C° 0 mm 1 mps 683 mmHg 15%
    09:00 +18°C° 0 mm 1 mps 683 mmHg 14%
    10:00 +20°C° 0 mm 1 mps 684 mmHg 13%
    11:00 +22°C° 0 mm 1 mps 684 mmHg 12%
    12:00 +22°C° 0 mm 1 mps 684 mmHg 14%
    13:00 +23°C° 0 mm 2 mps 683 mmHg 15%
    14:00 +24°C° 0 mm 2 mps 683 mmHg 17%
    15:00 +23°C° 0 mm 2 mps 683 mmHg 22%
    16:00 +22°C° 0 mm 1 mps 682 mmHg 27%
    17:00 +21°C° 0 mm 1 mps 682 mmHg 33%
    18:00 +20°C° 0 mm 1 mps 682 mmHg 35%
    19:00 +19°C° 0 mm 1 mps 682 mmHg 38%
    20:00 +18°C° 0 mm 1 mps 682 mmHg 41%
    21:00 +18°C° 0 mm 1 mps 682 mmHg 41%
    22:00 +18°C° 0 mm 1 mps 681 mmHg 41%
    23:00 +16°C° 0 mm 1 mps 681 mmHg 40%

    26 January, Saturday

    Time Temperature Precipitation Wind Pressure Humidity
    00:00 +16°C° 0 mm 1 mps 681 mmHg 42%
    01:00 +15°C° 0 mm 1 mps 680 mmHg 44%
    02:00 +15°C° 0 mm 1 mps 680 mmHg 46%
    03:00 +14°C° 0 mm 1 mps 680 mmHg 48%
    04:00 +14°C° 0 mm 1 mps 679 mmHg 49%
    05:00 +13°C° 0 mm 1 mps 679 mmHg 50%
    06:00 +15°C° 0 mm 1 mps 680 mmHg 44%
    07:00 +16°C° 0 mm 1 mps 680 mmHg 39%
    08:00 +19°C° 0 mm 1 mps 681 mmHg 33%
    09:00 +20°C° 0 mm 1 mps 682 mmHg 29%
    10:00 +22°C° 0 mm 1 mps 682 mmHg 25%
    11:00 +24°C° 0 mm 2 mps 682 mmHg 21%
    12:00 +25°C° 0 mm 2 mps 682 mmHg 22%
    13:00 +25°C° 0 mm 2 mps 682 mmHg 23%
    14:00 +25°C° 0 mm 2 mps 681 mmHg 24%
    15:00 +25°C° 0 mm 2 mps 681 mmHg 28%
    16:00 +24°C° 0 mm 2 mps 681 mmHg 31%
    17:00 +23°C° 0 mm 1 mps 680 mmHg 34%
    18:00 +21°C° 0 mm 1 mps 680 mmHg 35%
    19:00 +20°C° 0 mm 1 mps 681 mmHg 35%
    20:00 +18°C° 0 mm 1 mps 681 mmHg 36%
    21:00 +18°C° 0 mm 1 mps 681 mmHg 30%
    22:00 +16°C° 0 mm 1 mps 681 mmHg 24%
    23:00 +16°C° 0 mm 2 mps 681 mmHg 19%

    27 January, Sunday

    Time Temperature Precipitation Wind Pressure Humidity
    00:00 +16°C° 0 mm 2 mps 680 mmHg 16%
    01:00 +15°C° 0 mm 2 mps 680 mmHg 13%
    02:00 +15°C° 0 mm 2 mps 680 mmHg 10%
    03:00 +14°C° 0 mm 2 mps 680 mmHg 10%
    04:00 +13°C° 0 mm 2 mps 680 mmHg 11%
    05:00 +13°C° 0 mm 2 mps 680 mmHg 12%
    06:00 +14°C° 0 mm 2 mps 680 mmHg 13%
    07:00 +14°C° 0 mm 2 mps 681 mmHg 13%
    08:00 +15°C° 0 mm 2 mps 681 mmHg 14%
    09:00 +16°C° 0 mm 2 mps 682 mmHg 14%
    10:00 +18°C° 0 mm 2 mps 682 mmHg 14%
    11:00 +19°C° 0 mm 2 mps 682 mmHg 14%
    12:00 +19°C° 0 mm 3 mps 682 mmHg 14%
    13:00 +19°C° 0 mm 3 mps 682 mmHg 14%
    14:00 +19°C° 0 mm 3 mps 681 mmHg 15%
    15:00 +19°C° 0 mm 3 mps 681 mmHg 15%
    16:00 +18°C° 0 mm 3 mps 681 mmHg 16%
    17:00 +17°C° 0 mm 3 mps 681 mmHg 17%
    18:00 +16°C° 0 mm 3 mps 681 mmHg 17%
    19:00 +13°C° 0 mm 3 mps 681 mmHg 16%
    20:00 +12°C° 0 mm 3 mps 681 mmHg 16%
    21:00 +11°C° 0 mm 3 mps 682 mmHg 17%
    22:00 +10°C° 0 mm 3 mps 682 mmHg 17%
    23:00 +9°C° 0 mm 3 mps 682 mmHg 18%

    28 January, Monday

    Time Temperature Precipitation Wind Pressure Humidity
    00:00 +9°C° 0 mm 3 mps 682 mmHg 20%
    01:00 +8°C° 0 mm 3 mps 682 mmHg 22%
    02:00 +6°C° 0 mm 4 mps 682 mmHg 25%
    03:00 +7°C° 0 mm 3 mps 682 mmHg 27%
    04:00 +5°C° 0 mm 3 mps 682 mmHg 29%
    05:00 +5°C° 0 mm 3 mps 682 mmHg 32%
    06:00 +5°C° 0 mm 3 mps 682 mmHg 31%
    07:00 +5°C° 0 mm 3 mps 683 mmHg 30%
    08:00 +7°C° 0 mm 3 mps 684 mmHg 29%
    09:00 +8°C° 0 mm 4 mps 684 mmHg 26%
    10:00 +10°C° 0 mm 4 mps 685 mmHg 23%
    11:00 +12°C° 0 mm 5 mps 685 mmHg 20%
    12:00 +13°C° 0 mm 5 mps 685 mmHg 17%
    13:00 +13°C° 0 mm 4 mps 685 mmHg 15%
    14:00 +14°C° 0 mm 4 mps 685 mmHg 13%
    15:00 +14°C° 0 mm 4 mps 685 mmHg 14%
    16:00 +13°C° 0 mm 4 mps 685 mmHg 16%
    17:00 +12°C° 0 mm 3 mps 685 mmHg 17%
    18:00 +11°C° 0 mm 3 mps 685 mmHg 22%
    19:00 +10°C° 0 mm 2 mps 685 mmHg 27%
    20:00 +9°C° 0 mm 2 mps 685 mmHg 32%
    21:00 +8°C° 0 mm 2 mps 685 mmHg 35%
    22:00 +9°C° 0 mm 1 mps 685 mmHg 37%
    23:00 +8°C° 0 mm 1 mps 685 mmHg 40%
    Show more